Wind_Speed
46 46 46 45 43 42 41 41 40 42 45 48 50 53 55 55 56 56 55 54 56 59 62 64 63 59 58 59 60 61 64 66 67 67 68 69 69 70 73 72 67 65
47 46 46 45 44 42 40 39 40 43 46 49 52 54 57 58 58 58 58 58 59 62 65 67 65 58 58 61 61 63 65 67 68 68 68 69 69 71 76 77 72 68
47 46 45 44 43 42 40 39 41 43 47 50 53 56 58 60 59 59 61 62 62 63 66 67 64 58 58 62 64 65 68 69 69 68 70 71 71 74 79 79 75 71
46 44 43 43 42 41 40 41 43 45 49 52 55 57 60 61 60 60 64 64 62 62 66 66 61 58 60 65 67 68 71 72 71 70 71 72 74 78 82 80 78 75
45 43 41 42 42 42 43 44 46 49 52 56 58 59 62 62 60 62 67 65 60 62 66 64 60 61 64 67 68 70 74 74 72 71 72 74 77 81 85 83 81 79
45 43 42 42 43 45 46 48 50 53 56 59 60 61 62 61 61 66 69 65 59 62 66 64 62 63 66 68 69 73 76 75 73 73 74 76 79 84 87 87 84 82
46 45 45 44 46 48 49 52 55 57 59 62 62 63 64 62 63 68 69 63 59 62 66 65 63 64 66 68 71 75 76 75 73 74 76 78 81 86 89 89 87 85
48 48 49 50 51 53 55 57 59 61 63 64 66 67 65 63 65 68 68 61 57 61 66 65 63 64 66 69 73 76 75 74 74 75 77 79 83 88 91 91 89 88
52 52 53 55 56 57 59 60 61 64 67 68 68 67 64 63 66 68 66 58 56 61 65 64 63 65 68 72 74 76 76 75 75 76 78 81 85 90 93 93 92 90
56 56 58 59 60 62 63 63 65 68 71 72 70 67 64 66 68 67 60 54 56 62 65 64 65 66 70 74 76 77 77 76 76 77 79 82 87 91 94 95 94 92
59 60 61 63 64 65 65 66 69 72 73 72 70 68 68 69 68 62 54 52 58 62 64 65 67 69 73 76 78 79 78 77 77 79 81 85 89 92 95 96 95 93
60 61 62 64 65 66 66 68 71 72 73 71 70 70 71 70 66 57 51 53 59 62 65 68 70 73 76 79 81 80 79 78 80 82 85 88 91 94 96 97 97 95
60 61 61 63 65 67 69 71 72 72 71 70 70 70 69 67 62 54 52 57 62 65 67 69 71 76 79 81 83 82 80 81 83 85 87 90 92 95 98 99 99 97
61 60 61 65 68 70 72 71 70 69 69 68 67 68 68 64 57 54 56 61 65 68 69 70 74 78 81 83 85 84 82 84 87 88 89 91 94 98 100 101 101 100
62 61 63 68 71 72 70 68 65 65 66 66 65 66 65 59 56 57 60 65 69 70 71 72 77 81 83 85 86 86 86 88 90 89 90 93 96 100 102 103 103 102
63 63 67 71 71 68 64 63 62 62 65 63 61 60 59 57 58 60 63 68 72 73 73 76 80 83 85 86 88 89 89 91 91 91 93 95 98 100 103 105 106 105
64 65 67 67 66 64 63 62 61 65 68 62 55 54 55 56 58 61 67 72 75 76 78 80 83 85 86 87 89 90 91 92 93 93 95 98 100 102 105 107 107 106
62 62 60 57 57 63 66 65 66 73 73 61 51 49 51 54 60 65 71 74 76 78 81 83 85 86 87 88 89 91 93 95 95 95 98 100 102 104 106 108 108 106
53 55 55 52 54 60 64 66 70 73 67 57 51 52 56 61 68 72 74 76 78 80 83 84 85 86 87 90 91 93 96 96 96 98 100 102 103 105 108 109 108 106
51 52 52 52 57 61 61 61 62 61 57 56 57 60 64 69 73 75 76 77 80 83 84 85 87 89 91 93 94 96 98 98 98 99 101 103 104 106 110 110 107 106
49 47 48 51 56 58 57 54 55 57 60 62 63 65 68 72 75 76 77 79 82 85 86 89 92 94 95 96 98 100 100 98 98 99 102 104 105 109 111 110 107 107
44 44 49 52 54 56 56 55 57 63 66 68 69 72 76 79 82 82 81 82 85 87 90 94 97 99 100 100 101 100 98 97 97 100 103 104 107 111 113 110 109 108
41 44 50 53 54 57 59 60 64 68 69 71 75 78 80 82 84 84 84 86 89 93 96 98 100 102 102 100 98 97 96 97 100 102 104 106 110 113 112 110 110 110
41 44 49 50 50 55 61 63 66 69 72 76 81 83 84 85 84 84 85 89 93 97 99 99 99 100 99 97 96 97 97 99 101 102 104 108 112 113 111 111 112 111
41 47 52 51 50 56 63 65 67 70 74 77 81 82 83 84 85 86 89 94 98 100 100 99 99 99 98 97 97 98 99 100 102 103 106 110 112 111 111 112 113 112
44 51 55 55 57 62 66 67 69 71 70 73 79 82 82 85 88 91 95 97 98 98 98 99 98 98 99 99 99 100 101 102 103 105 108 111 110 110 112 113 113 112
Wind_Direction
311 310 308 306 304 303 303 304 306 308 311 317 322 324 327 328 330 330 326 322 324 327 330 331 329 328 332 336 337 337 337 338 341 342 343 343 343 343 344 343 341 340
310 308 306 304 301 300 300 300 303 305 309 315 319 321 323 324 326 328 326 321 321 324 326 327 327 326 329 333 335 334 335 336 338 340 341 341 342 341 341 341 340 338
310 307 304 302 300 299 297 297 300 304 308 313 315 316 319 321 322 324 325 322 320 322 324 325 325 325 327 330 332 332 333 334 336 337 338 339 339 339 340 340 339 337
310 307 304 302 299 297 296 297 300 303 307 311 312 313 315 318 319 321 323 323 321 322 324 323 323 324 326 328 329 330 332 333 334 335 336 337 337 337 339 338 338 337
310 307 305 302 299 297 297 299 301 303 306 309 309 310 313 315 316 319 321 321 319 321 324 322 322 324 325 327 328 329 331 332 332 332 333 334 334 335 337 337 337 336
309 306 304 301 299 299 300 300 302 303 306 308 308 309 312 313 314 317 319 318 316 319 323 322 321 323 325 327 328 329 330 330 330 330 331 332 333 334 336 336 336 336
307 305 302 300 299 299 300 301 302 304 307 309 308 308 310 311 312 315 318 316 313 317 321 320 320 322 324 326 327 328 329 329 328 328 330 331 332 334 335 336 336 335
306 304 303 302 300 300 301 303 303 305 308 308 307 307 308 309 311 314 316 313 310 314 318 318 318 320 323 324 326 328 328 327 327 328 330 331 331 333 334 335 334 334
306 306 306 305 303 302 304 304 304 306 308 307 307 306 306 308 311 314 313 309 307 312 316 316 316 318 321 323 325 327 327 326 326 328 329 330 331 332 333 333 333 333
306 307 307 306 304 305 306 305 305 307 307 307 307 306 306 309 311 312 310 306 306 311 314 314 315 317 319 322 325 326 325 325 325 327 328 329 330 331 332 332 332 332
307 308 308 306 306 307 306 305 306 307 307 307 306 305 306 307 309 309 307 304 306 310 311 311 313 315 317 320 324 325 324 324 324 325 327 328 329 330 331 331 331 331
309 309 308 307 307 308 307 306 307 308 308 306 304 303 303 303 306 305 301 302 306 307 308 309 311 313 316 318 322 324 323 322 322 323 325 327 328 329 330 330 330 330
309 309 309 308 307 307 307 307 308 308 307 304 301 300 299 300 303 300 296 299 304 305 306 308 310 313 314 317 320 322 321 320 321 322 324 326 327 327 328 329 329 329
307 307 307 305 305 306 307 308 308 307 305 302 299 296 296 299 299 295 293 297 301 303 305 308 310 312 313 315 318 319 319 319 319 321 323 325 325 326 327 327 328 327
304 305 305 305 306 307 308 308 307 306 304 299 297 297 295 296 295 291 291 295 298 301 305 307 310 311 311 313 315 317 317 317 318 320 322 323 324 325 326 326 327 326
305 306 306 307 307 306 307 307 303 305 306 300 295 297 294 291 291 289 290 294 298 301 304 306 308 308 309 310 313 315 316 316 317 319 321 321 322 323 325 325 326 325
308 309 308 309 308 306 307 307 302 304 307 300 293 294 292 287 287 287 290 295 298 301 303 304 305 305 306 308 311 313 314 314 316 317 319 319 320 322 323 325 325 325
313 311 308 307 305 304 306 305 302 303 303 297 292 292 291 288 288 289 293 297 299 301 301 302 303 303 303 306 309 311 312 313 315 316 317 318 319 321 323 324 324 324
313 306 300 296 292 295 300 300 300 300 297 293 293 294 293 292 292 293 296 298 300 301 301 301 301 301 302 305 308 310 311 313 315 316 316 317 319 320 322 323 323 324
307 297 293 291 288 292 299 301 299 296 293 292 295 295 294 294 294 295 297 298 299 299 299 299 299 300 302 305 307 309 310 312 314 314 316 317 318 320 321 322 322 324
304 295 292 295 295 297 303 303 298 293 292 294 294 294 294 294 295 295 297 297 298 297 297 298 299 300 302 304 306 308 310 312 313 314 315 316 318 319 320 321 322 324
304 296 292 293 294 296 300 299 293 291 293 294 292 292 293 294 294 294 295 296 297 297 298 298 298 299 301 303 306 308 310 312 313 314 315 316 317 318 319 321 323 324
301 290 285 288 291 291 292 291 289 291 292 292 291 289 290 291 292 293 294 294 295 297 298 299 299 300 303 305 307 309 311 311 312 313 314 315 316 317 318 320 322 323
295 284 281 286 288 285 284 285 285 287 289 290 289 288 287 289 290 291 292 293 294 296 297 298 299 301 303 305 306 308 309 310 311 312 313 314 315 316 318 320 322 322
287 280 278 279 275 273 276 280 282 285 288 289 288 287 287 287 288 289 290 292 294 295 296 297 299 301 302 303 305 306 308 309 310 310 311 312 314 316 318 320 321 321
280 274 273 273 269 268 271 276 281 283 283 283 284 285 287 287 288 289 290 291 293 294 296 298 299 300 302 303 304 306 307 308 308 309 310 312 314 316 317 318 319 320
Height
10923 10921 10919 10917 10916 10914 10912 10910 10907 10905 10902 10900 10897 10894 10891 10888 10886 10883 10880 10877 10874 10872 10869 10866 10863 10860 10857 10854 10850 10848 10845 10841 10838 10835 10831 10828 10824 10819 10816 10813 10809 10805
10918 10916 10913 10911 10909 10908 10907 10905 10902 10899 10896 10894 10890 10887 10884 10882 10880 10877 10874 10872 10869 10866 10864 10861 10857 10854 10852 10849 10846 10843 10840 10837 10834 10830 10827 10824 10821 10816 10811 10808 10804 10800
10913 10911 10908 10905 10903 10902 10901 10900 10897 10894 10892 10889 10886 10882 10880 10877 10875 10872 10869 10866 10864 10862 10859 10855 10852 10849 10846 10843 10840 10838 10835 10832 10828 10825 10822 10819 10816 10812 10806 10801 10797 10793
10908 10906 10903 10901 10899 10897 10896 10894 10892 10890 10888 10885 10882 10879 10876 10873 10870 10867 10864 10862 10859 10857 10854 10851 10847 10844 10841 10838 10834 10832 10829 10826 10823 10820 10816 10813 10809 10806 10802 10796 10791 10786
10904 10902 10899 10897 10895 10893 10891 10889 10887 10885 10883 10880 10877 10874 10871 10868 10866 10862 10859 10857 10854 10852 10849 10845 10842 10839 10835 10832 10828 10826 10823 10820 10817 10814 10811 10808 10804 10800 10796 10791 10786 10780
10901 10898 10895 10893 10891 10889 10887 10884 10882 10879 10877 10874 10871 10869 10866 10864 10861 10858 10854 10851 10849 10846 10843 10839 10836 10833 10829 10826 10823 10820 10817 10814 10811 10808 10805 10802 10798 10793 10788 10783 10779 10774
10898 10894 10891 10889 10887 10884 10882 10879 10876 10874 10871 10869 10865 10863 10861 10859 10856 10853 10849 10846 10843 10840 10837 10834 10831 10828 10824 10821 10818 10815 10812 10809 10806 10803 10799 10795 10790 10786 10781 10776 10772 10768
10895 10892 10888 10885 10882 10879 10876 10873 10870 10868 10866 10863 10860 10857 10856 10854 10851 10848 10845 10841 10839 10836 10832 10829 10827 10824 10820 10817 10814 10810 10807 10804 10800 10796 10792 10787 10783 10779 10775 10770 10765 10761
10890 10888 10884 10881 10877 10874 10871 10867 10863 10861 10859 10856 10852 10850 10849 10848 10846 10843 10840 10836 10834 10831 10827 10824 10822 10819 10816 10812 10808 10805 10801 10797 10794 10790 10786 10781 10777 10773 10768 10764 10759 10754
10885 10882 10879 10875 10872 10870 10867 10863 10858 10856 10852 10848 10845 10843 10842 10841 10840 10837 10834 10831 10828 10825 10821 10818 10816 10814 10810 10806 10803 10799 10795 10791 10788 10784 10780 10776 10772 10767 10762 10757 10752 10747
10879 10877 10872 10868 10865 10864 10862 10858 10854 10851 10847 10843 10839 10837 10836 10834 10833 10831 10828 10825 10822 10819 10815 10812 10810 10807 10803 10800 10796 10792 10788 10784 10780 10777 10774 10770 10765 10760 10756 10751 10747 10742
10874 10871 10866 10861 10859 10857 10855 10852 10848 10845 10842 10838 10835 10832 10830 10828 10826 10825 10822 10819 10816 10812 10809 10806 10803 10799 10796 10792 10789 10785 10781 10777 10773 10770 10766 10762 10758 10753 10749 10745 10741 10736
10869 10866 10860 10856 10853 10850 10847 10844 10841 10838 10835 10832 10829 10826 10824 10822 10820 10818 10816 10813 10809 10805 10801 10798 10795 10792 10788 10785 10782 10778 10775 10771 10766 10762 10758 10754 10750 10746 10742 10738 10733 10729
10865 10861 10856 10850 10847 10844 10842 10838 10834 10830 10827 10825 10822 10820 10818 10816 10815 10812 10809 10806 10802 10798 10794 10791 10788 10785 10781 10778 10774 10771 10768 10764 10759 10756 10752 10747 10743 10738 10734 10731 10726 10721
10859 10856 10850 10844 10840 10837 10835 10831 10827 10824 10820 10818 10816 10813 10812 10811 10809 10806 10802 10799 10795 10791 10788 10785 10782 10779 10775 10771 10767 10764 10761 10756 10752 10749 10745 10740 10736 10730 10725 10721 10717 10712
10852 10849 10842 10837 10833 10829 10827 10824 10821 10818 10815 10811 10808 10806 10806 10804 10802 10799 10795 10792 10788 10785 10782 10779 10776 10773 10769 10765 10761 10757 10753 10749 10745 10742 10738 10734 10729 10724 10718 10713 10707 10702
10846 10841 10835 10829 10823 10819 10818 10817 10814 10812 10809 10805 10802 10800 10799 10798 10795 10792 10789 10785 10782 10779 10775 10773 10769 10766 10763 10759 10755 10751 10747 10743 10739 10735 10731 10727 10722 10718 10712 10705 10699 10693
10841 10835 10831 10827 10819 10811 10809 10809 10806 10804 10801 10799 10798 10795 10793 10791 10788 10785 10782 10779 10776 10772 10768 10765 10762 10759 10756 10752 10749 10744 10740 10736 10732 10727 10722 10718 10714 10709 10704 10698 10691 10684
10842 10838 10835 10831 10822 10812 10807 10804 10800 10797 10794 10792 10792 10790 10787 10784 10781 10778 10776 10773 10769 10765 10761 10757 10754 10750 10747 10744 10740 10736 10732 10728 10723 10718 10713 10709 10705 10701 10696 10690 10684 10677
10841 10837 10833 10827 10817 10808 10804 10800 10795 10791 10787 10786 10785 10783 10779 10776 10773 10770 10769 10766 10762 10758 10754 10749 10746 10742 10739 10736 10732 10728 10725 10721 10716 10710 10704 10699 10695 10691 10687 10682 10676 10669
10832 10827 10823 10819 10811 10801 10797 10794 10790 10786 10784 10781 10779 10775 10771 10768 10764 10762 10761 10758 10754 10750 10746 10741 10737 10733 10731 10728 10724 10720 10717 10713 10707 10702 10696 10690 10685 10681 10677 10673 10667 10660
10824 10820 10816 10813 10806 10796 10791 10789 10785 10781 10780 10777 10773 10768 10765 10761 10757 10754 10753 10750 10745 10741 10738 10733 10728 10723 10722 10720 10716 10712 10707 10703 10697 10692 10687 10681 10676 10671 10667 10662 10657 10650
10817 10816 10811 10807 10800 10793 10787 10784 10779 10775 10774 10771 10766 10762 10759 10756 10751 10747 10745 10741 10736 10732 10728 10723 10718 10714 10711 10710 10707 10703 10698 10693 10688 10683 10678 10673 10667 10662 10657 10652 10647 10641
10812 10811 10807 10801 10795 10788 10782 10779 10775 10771 10768 10764 10759 10755 10753 10748 10744 10741 10737 10732 10728 10724 10719 10714 10710 10707 10704 10701 10698 10695 10690 10685 10680 10675 10670 10665 10660 10654 10649 10643 10638 10633
10807 10804 10799 10794 10789 10783 10777 10774 10772 10768 10764 10757 10750 10747 10745 10740 10736 10734 10729 10724 10721 10715 10709 10706 10703 10700 10697 10694 10691 10688 10683 10678 10673 10669 10663 10658 10652 10646 10640 10635 10630 10625
10801 10794 10789 10785 10780 10774 10770 10769 10768 10766 10760 10750 10741 10737 10736 10733 10729 10726 10722 10719 10716 10708 10701 10699 10696 10692 10689 10686 10683 10680 10675 10671 10667 10662 10656 10650 10644 10638 10632 10626 10621 10617